{"data":{"norad_id":58150,"intl_designator":"2023-166A","name":"STARLINK-30802","alt_names":[],"object_type":"PAYLOAD","status":"ACTIVE","operator":null,"country":"US","launch_date":"2023-10-29","launch_site_code":"AFWTR","launch_vehicle":null,"mission":null,"orbit_class":"UNKNOWN","rcs_meters":null,"size_class":null,"mass_kg":null,"dimensions":null,"purposes":["comms"],"wikipedia_slug":null,"has_3d_model":false,"image_url":null,"decayed_at":null,"tle_current":{"epoch":"2026-09-20T15:10:04.984896Z","epoch_age_seconds":129027,"freshness":"FRESH","line1":"1 58150U 23166A   26263.63200214 -.00000194  00000+0  55134-5 0  9991","line2":"2 58150  53.1612  32.8478 0001386  90.9482 269.1678 15.31700607163044","mean_motion":15.31700607,"eccentricity":0.0001386,"inclination_deg":53.1612,"raan_deg":32.8478,"arg_perigee_deg":90.9482,"mean_anomaly_deg":269.1678,"bstar":5.5134e-6,"rev_number":16304,"period_min":94.013150704457,"perigee_km":469.78893169008,"apogee_km":471.68743989158,"semimajor_km":6848.8751857908,"source":"CELESTRAK","updated_at":"2026-09-21T09:00:33.795331Z"}}}